Location: *
(46.4833°N, 7.6667°E)
Time: 10:36:59
(UTC+00:00)

Cosmos 405 - Pass Details

Date: 27 February 2020
Orbit: 452 x 465 km, 81.3° (Epoch: 04 April)

Event Time Altitude Azimuth Distance (km) Brightness Sun altitude
Rises 18:47:20 0° 342° (NNW) 2,507 7.0 -17.2°
Reaches altitude 10° 18:49:29 10° 336° (NNW) 1,628 6.1 -17.6°
Maximum altitude 18:52:51 42° 265° (W) 675 4.3 -18.2°
Drops below altitude 10° 18:56:13 10° 193° (SSW) 1,617 5.8 -18.8°
Sets 18:58:21 0° 186° (S) 2,487 6.7 -19.1°
